Wind_Speed
9 11 11 12 12 12 12 12 12 12 12 12 11 11 11 10 10 10 9 8 7 7 6 6 6 6 6 6 6 6 6 6 6 7 7 8 8 8 8 8 9 9 10
11 12 13 13 13 13 14 14 14 13 13 13 13 13 12 12 11 10 9 8 8 7 7 7 6 6 6 5 6 6 6 7 7 7 8 8 9 9 9 9 9 9 10
13 13 13 13 14 14 15 15 15 15 14 14 14 13 13 12 12 11 10 9 8 7 7 6 6 6 5 5 5 6 6 7 7 8 8 9 9 9 9 9 9 9 10
14 14 15 15 15 16 16 15 16 16 15 14 14 14 13 13 12 10 10 9 8 7 6 6 6 5 5 5 5 6 6 7 7 8 8 9 9 9 9 9 9 10 10
15 15 16 16 16 17 17 17 16 16 16 15 14 14 13 12 11 10 9 8 8 7 6 6 5 5 5 5 5 6 6 7 7 7 8 8 9 10 10 10 10 10 10
14 16 16 17 17 17 18 18 17 16 16 15 14 13 13 12 11 10 9 8 8 7 6 5 5 5 5 5 5 6 7 7 8 8 8 8 9 10 10 10 11 10 10
14 15 16 16 17 17 17 17 17 17 16 15 14 13 13 12 11 10 9 8 8 7 6 6 5 5 5 6 6 7 7 8 8 8 8 9 10 10 10 11 11 11 11
13 14 15 16 17 17 17 17 17 17 16 15 14 13 13 12 11 10 9 9 8 7 6 6 6 6 6 6 7 7 8 9 8 8 8 9 10 10 10 11 11 11 11
12 13 14 15 16 17 17 17 17 17 16 15 14 14 13 12 11 10 10 9 8 8 7 7 7 7 7 7 8 8 9 9 9 9 9 9 10 10 10 11 11 11 12
12 12 13 15 16 16 17 17 17 16 15 15 14 14 13 12 11 10 10 9 9 9 8 8 8 8 8 9 9 10 10 10 10 10 10 11 11 11 11 12 12 12 12
12 12 12 13 15 16 16 16 16 15 15 14 14 13 13 12 11 11 11 10 10 10 10 10 10 10 10 10 11 11 11 11 11 11 11 13 13 12 12 12 12 13 13
13 12 12 13 14 15 16 16 16 15 15 14 14 13 13 12 12 12 11 11 11 11 12 12 12 12 12 12 13 13 14 14 13 13 13 14 14 14 14 14 14 14 14
14 13 12 12 14 15 15 15 15 15 14 14 13 13 13 12 12 12 12 12 13 13 13 14 14 14 15 15 15 16 16 17 17 16 16 16 16 15 15 16 16 15 15
15 14 13 13 14 14 15 15 14 14 14 14 14 14 14 13 13 13 13 14 14 14 15 16 16 17 17 18 18 19 19 20 21 19 18 19 18 17 17 17 18 18 17
15 15 13 13 13 13 14 14 14 14 15 15 15 15 14 15 14 15 15 16 16 16 17 18 18 19 20 21 22 22 23 24 24 24 22 22 21 21 21 21 21 21 20
15 15 15 14 14 14 14 15 15 15 15 15 15 15 15 15 15 16 17 18 19 19 20 21 21 22 23 23 24 25 26 26 26 26 26 25 25 25 24 24 24 24 23
16 16 15 15 15 15 15 16 16 16 16 16 16 16 17 17 17 18 19 20 21 22 23 24 25 25 26 27 27 28 28 29 29 29 29 28 28 28 27 27 27 27 27
17 16 16 16 15 16 16 16 17 17 17 17 18 18 19 19 20 21 22 23 24 25 26 27 27 27 27 28 29 30 31 31 31 31 31 32 31 30 29 29 29 30 30
18 17 18 18 17 17 17 17 18 18 19 20 20 20 22 22 23 25 25 26 27 28 28 28 28 28 28 29 30 31 32 32 33 32 32 33 33 32 32 30 30 32 33
20 18 19 19 18 18 19 19 19 20 21 22 23 24 24 26 27 28 28 28 29 29 30 29 28 29 29 29 30 31 32 33 32 31 32 33 32 32 33 33 34 35 37
21 20 19 19 20 19 20 20 21 22 24 25 26 27 27 28 29 28 29 30 31 31 29 28 29 30 30 29 28 28 30 31 31 31 32 32 32 32 34 37 38 39 40
22 21 20 20 21 21 22 22 23 24 26 27 28 29 29 30 31 32 32 33 33 33 32 30 30 29 29 30 30 30 31 31 32 32 33 34 35 36 38 39 40 42 44
22 22 21 22 23 24 25 25 25 26 27 29 30 30 31 31 31 32 33 33 32 31 30 30 31 31 31 32 32 32 33 33 34 34 35 36 38 39 39 41 43 45 48
25 25 25 26 26 26 27 26 27 28 29 31 32 33 33 33 34 33 33 32 31 31 31 31 32 32 33 34 34 34 35 36 36 36 37 38 40 41 43 45 46 48 50
28 27 27 28 28 28 28 29 29 30 31 31 32 33 32 33 32 31 31 32 32 31 32 33 34 35 35 36 37 36 37 39 39 39 40 41 43 45 46 49 50 52 53
28 28 28 28 29 30 30 31 32 32 32 33 34 34 33 33 33 32 32 31 32 32 34 35 36 37 38 39 39 40 41 41 41 43 44 45 47 49 52 54 55 56 58
Wind_Direction
238 235 233 229 229 226 221 220 222 226 229 234 239 244 247 250 253 256 259 260 260 262 266 267 269 272 276 279 283 287 288 290 291 292 292 291 289 288 288 287 287 288 288
247 243 240 236 234 231 228 224 224 227 232 237 244 249 252 255 258 260 262 263 264 265 266 267 269 274 278 282 286 288 290 293 296 296 294 294 293 291 291 289 289 290 289
255 250 244 239 236 234 231 227 228 231 235 240 246 252 256 258 259 260 263 265 267 267 268 270 274 277 278 283 287 289 291 296 300 299 297 297 296 295 294 293 293 291 290
264 256 250 244 240 238 235 231 230 233 236 241 247 254 258 259 258 260 263 264 265 266 269 273 277 280 283 287 291 293 296 300 303 301 299 298 298 298 297 296 296 294 291
267 261 253 248 245 241 237 233 232 234 237 242 248 254 257 257 258 259 260 260 260 263 268 274 279 283 287 294 299 301 304 308 307 306 304 299 300 301 300 299 298 297 296
271 264 257 250 247 243 238 236 235 236 239 243 249 253 255 256 257 257 256 257 259 262 267 272 277 283 291 299 303 306 310 313 313 313 314 309 310 307 304 301 300 299 297
276 270 262 252 246 243 240 238 236 237 239 243 249 252 254 256 255 254 253 255 258 262 264 269 273 280 289 299 305 310 315 316 315 317 321 316 317 314 311 307 303 298 296
278 272 263 254 248 244 241 239 237 238 239 243 247 249 252 253 253 250 251 255 259 261 264 269 273 282 291 299 305 311 315 315 316 320 325 318 317 317 314 310 307 299 293
282 274 263 254 247 242 239 238 237 238 241 244 245 248 250 250 250 249 252 255 258 261 264 268 275 283 290 296 302 308 312 313 316 321 323 314 315 315 314 310 308 303 295
285 276 266 256 248 242 238 237 237 238 240 242 244 247 248 248 247 249 252 256 259 261 264 270 277 285 293 297 302 305 306 309 312 316 316 311 310 311 310 309 305 301 297
288 279 270 259 251 245 240 238 237 237 238 240 242 244 247 247 248 251 253 255 259 263 267 272 279 285 291 295 299 302 304 305 309 312 308 304 305 305 306 305 303 300 296
290 283 273 261 253 248 243 239 238 237 238 240 242 244 247 248 249 252 252 255 259 263 267 273 279 283 289 293 295 297 299 301 303 307 302 302 304 306 305 303 300 298 294
288 287 277 263 256 250 245 241 238 238 239 241 242 245 246 247 249 254 256 258 262 268 272 275 279 283 286 288 291 295 296 296 297 299 300 300 301 302 302 300 297 296 292
282 286 280 268 261 254 247 243 241 240 241 241 243 246 249 251 254 258 260 265 269 273 276 278 281 284 287 288 291 293 293 293 294 293 295 296 296 296 295 297 296 294 293
276 283 282 271 265 257 248 244 245 244 243 243 247 250 255 258 260 263 266 270 274 276 279 281 283 286 288 289 290 290 290 291 291 291 291 292 291 292 292 292 292 292 290
267 276 280 276 269 259 252 249 248 248 248 250 253 256 260 263 266 269 272 275 279 280 280 280 283 285 286 288 290 290 289 290 290 290 289 288 288 288 289 290 288 287 287
263 268 272 272 269 264 256 251 251 252 252 253 256 261 263 266 270 273 275 278 281 281 282 283 286 284 284 286 287 287 286 287 287 287 287 287 287 285 285 286 286 284 284
256 263 267 266 265 264 258 255 255 257 257 257 259 263 268 270 271 274 276 278 280 281 281 284 286 285 285 285 284 282 281 283 284 284 285 284 284 282 282 284 285 285 284
253 262 264 265 264 264 262 261 261 261 261 261 263 266 269 272 273 274 276 280 280 279 280 282 285 286 288 289 288 286 284 286 286 283 281 282 282 281 282 282 281 283 282
252 257 261 265 266 264 263 263 263 265 265 266 266 266 268 272 275 276 279 282 283 281 280 282 284 288 290 291 291 289 287 288 286 284 282 284 283 281 280 279 279 279 280
248 252 258 263 266 267 267 267 269 268 269 268 266 266 269 272 275 277 279 283 284 283 284 285 288 289 291 293 294 293 291 290 289 286 283 284 283 282 280 280 279 278 277
248 253 256 264 269 269 271 271 272 273 275 275 274 275 274 274 276 276 277 278 283 285 286 290 291 293 294 294 294 293 292 290 289 287 285 285 284 282 280 280 279 279 277
252 257 261 265 268 270 271 272 275 277 279 280 278 278 278 279 279 278 281 283 286 288 289 290 292 295 295 294 293 292 290 288 288 287 286 285 284 282 281 282 281 280 279
252 256 261 264 265 269 272 271 275 278 279 282 282 282 282 284 285 287 287 288 291 289 290 290 293 295 293 293 293 292 291 290 289 287 286 286 284 281 281 282 282 280 279
252 256 259 262 265 268 272 274 277 280 280 282 286 288 289 288 290 293 294 293 291 292 292 293 294 295 294 293 293 293 291 291 291 290 289 288 286 284 283 283 282 281 280
254 258 260 261 264 268 272 277 279 282 285 288 293 294 296 293 292 293 293 295 295 295 294 294 294 294 295 295 294 293 292 292 292 291 290 289 288 286 285 283 282 281 280
Height
5897 5897 5898 5899 5899 5900 5900 5901 5902 5902 5903 5904 5904 5905 5905 5906 5906 5906 5906 5905 5905 5905 5905 5904 5904 5904 5903 5903 5903 5902 5902 5902 5902 5902 5902 5902 5902 5902 5902 5903 5903 5903 5903
5896 5896 5897 5897 5898 5898 5899 5899 5900 5901 5902 5902 5903 5904 5904 5905 5905 5905 5905 5905 5905 5904 5904 5903 5903 5903 5903 5903 5902 5902 5902 5902 5902 5902 5901 5901 5901 5901 5901 5902 5902 5902 5902
5894 5895 5895 5896 5896 5897 5897 5898 5898 5899 5900 5901 5902 5903 5903 5904 5904 5904 5904 5904 5904 5903 5903 5903 5903 5903 5902 5902 5902 5902 5901 5901 5901 5901 5901 5900 5900 5900 5900 5900 5901 5900 5900
5892 5893 5894 5894 5895 5895 5895 5896 5897 5898 5898 5899 5900 5901 5902 5902 5903 5903 5903 5903 5902 5902 5902 5902 5902 5902 5902 5902 5901 5901 5901 5901 5901 5900 5900 5900 5899 5899 5899 5899 5899 5899 5899
5892 5892 5892 5892 5893 5893 5894 5894 5895 5896 5897 5898 5899 5900 5901 5901 5901 5902 5902 5901 5901 5901 5901 5901 5901 5901 5901 5901 5901 5901 5900 5900 5900 5900 5899 5899 5898 5898 5898 5898 5897 5897 5897
5890 5890 5890 5890 5891 5891 5892 5892 5893 5894 5895 5896 5897 5898 5899 5900 5900 5900 5900 5900 5900 5900 5900 5900 5900 5900 5900 5900 5900 5900 5900 5899 5899 5899 5898 5897 5896 5896 5896 5896 5896 5896 5895
5888 5888 5888 5888 5888 5889 5890 5890 5891 5892 5893 5894 5895 5897 5897 5898 5899 5899 5899 5899 5899 5899 5899 5899 5899 5899 5899 5899 5899 5899 5898 5898 5898 5897 5897 5896 5895 5895 5895 5895 5894 5894 5894
5886 5886 5885 5886 5886 5887 5888 5888 5889 5890 5891 5893 5894 5895 5896 5897 5897 5898 5898 5898 5898 5898 5898 5898 5898 5898 5898 5898 5898 5898 5897 5897 5896 5896 5896 5895 5894 5894 5893 5893 5892 5892 5892
5884 5883 5883 5883 5884 5885 5885 5886 5888 5889 5890 5891 5892 5893 5894 5895 5896 5896 5897 5897 5897 5897 5897 5897 5897 5897 5897 5897 5897 5896 5896 5895 5895 5894 5894 5893 5892 5892 5891 5891 5890 5890 5890
5881 5881 5881 5882 5882 5883 5883 5884 5886 5887 5888 5889 5891 5892 5893 5894 5894 5895 5895 5895 5895 5895 5896 5896 5896 5896 5896 5896 5895 5895 5894 5894 5893 5893 5891 5890 5890 5890 5889 5889 5888 5888 5888
5879 5879 5879 5879 5880 5881 5881 5882 5883 5885 5886 5888 5889 5890 5891 5892 5893 5893 5894 5894 5894 5894 5894 5894 5894 5894 5894 5894 5894 5893 5892 5892 5891 5891 5890 5889 5888 5888 5887 5886 5886 5886 5885
5876 5877 5877 5877 5878 5879 5880 5881 5882 5883 5885 5886 5887 5888 5889 5890 5891 5892 5892 5892 5892 5892 5893 5893 5892 5892 5892 5892 5891 5891 5890 5889 5889 5889 5888 5887 5886 5885 5884 5884 5883 5883 5883
5873 5874 5874 5875 5875 5877 5878 5879 5880 5881 5883 5884 5885 5886 5887 5889 5889 5890 5890 5891 5891 5891 5891 5891 5891 5890 5890 5890 5889 5889 5888 5887 5886 5886 5886 5885 5883 5882 5882 5881 5881 5880 5879
5871 5871 5872 5873 5873 5875 5876 5877 5878 5880 5881 5882 5883 5884 5886 5887 5887 5888 5889 5889 5889 5889 5889 5889 5888 5888 5888 5887 5887 5886 5885 5884 5883 5882 5882 5881 5880 5879 5878 5878 5877 5876 5876
5868 5868 5869 5871 5871 5873 5874 5875 5877 5878 5879 5880 5881 5882 5884 5885 5885 5886 5886 5886 5886 5886 5886 5886 5885 5885 5884 5884 5883 5883 5882 5880 5879 5877 5878 5877 5876 5875 5874 5874 5873 5872 5872
5866 5866 5867 5868 5869 5871 5872 5873 5874 5875 5877 5878 5879 5880 5881 5882 5882 5883 5883 5883 5883 5883 5883 5882 5881 5881 5880 5879 5879 5879 5877 5877 5875 5873 5873 5873 5872 5871 5870 5869 5868 5867 5866
5863 5863 5864 5866 5867 5868 5869 5870 5871 5873 5874 5875 5876 5876 5877 5879 5879 5880 5880 5880 5879 5879 5878 5878 5877 5876 5876 5875 5874 5873 5873 5872 5870 5868 5866 5867 5866 5865 5864 5863 5862 5861 5861
5859 5861 5862 5863 5865 5865 5866 5867 5869 5870 5871 5872 5873 5873 5874 5875 5875 5875 5875 5875 5875 5874 5874 5873 5872 5871 5870 5869 5868 5867 5866 5866 5865 5863 5860 5860 5860 5859 5857 5855 5855 5854 5854
5855 5858 5859 5860 5861 5862 5863 5864 5865 5866 5867 5868 5869 5870 5870 5871 5871 5871 5871 5871 5870 5869 5868 5867 5866 5865 5864 5863 5862 5861 5860 5859 5858 5856 5855 5854 5853 5851 5850 5849 5848 5847 5846
5852 5854 5856 5857 5857 5859 5859 5860 5861 5862 5863 5864 5864 5865 5866 5866 5866 5866 5866 5865 5864 5863 5862 5861 5860 5859 5858 5857 5855 5854 5853 5852 5851 5850 5849 5847 5845 5844 5843 5842 5840 5839 5838
5848 5850 5851 5852 5853 5855 5855 5856 5857 5858 5858 5859 5859 5859 5860 5860 5860 5860 5860 5859 5858 5857 5856 5855 5854 5853 5852 5850 5849 5847 5846 5845 5844 5842 5841 5840 5838 5836 5835 5834 5832 5831 5829
5843 5845 5847 5848 5849 5850 5851 5852 5852 5853 5853 5854 5854 5853 5853 5853 5853 5853 5853 5852 5851 5851 5850 5849 5847 5846 5845 5844 5842 5840 5840 5839 5837 5835 5834 5832 5831 5829 5827 5825 5823 5821 5819
5839 5841 5843 5844 5845 5846 5847 5847 5847 5848 5848 5848 5848 5848 5847 5846 5845 5845 5845 5845 5844 5843 5843 5842 5841 5839 5838 5837 5835 5833 5832 5831 5829 5828 5826 5824 5822 5820 5817 5815 5813 5811 5808
5834 5837 5838 5839 5840 5841 5842 5842 5843 5843 5842 5842 5842 5841 5840 5840 5839 5839 5839 5838 5837 5836 5836 5835 5833 5832 5831 5829 5828 5826 5824 5822 5820 5818 5816 5814 5812 5810 5807 5804 5801 5799 5795
5829 5831 5833 5834 5835 5836 5837 5837 5837 5837 5836 5836 5836 5835 5834 5834 5833 5833 5832 5831 5830 5829 5828 5827 5826 5824 5822 5821 5819 5817 5814 5812 5810 5808 5806 5804 5801 5798 5795 5792 5789 5785 5782
5824 5826 5827 5829 5830 5831 5831 5832 5831 5830 5829 5829 5829 5828 5828 5827 5826 5825 5825 5824 5823 5821 5820 5819 5817 5815 5813 5811 5809 5807 5805 5802 5800 5797 5794 5792 5789 5785 5781 5778 5774 5770 5766